Location: Unspecified
(0.0000°N, 0.0000°E)
Time: 11:01:45
(UTC+00:00)

MIDAS 4 DEB - Pass Details

Date: 16 November 2025
Orbit: 3271 x 3959 km, 95.8° (Epoch: 26 July)

Event Time Altitude Azimuth Distance (km) Brightness Sun altitude
Exits shadow 22:49:06 30° 289° (WNW) 5,196 ? -66.6°
Maximum altitude 22:50:33 30° 282° (WNW) 5,201 ? -66.8°
Drops below altitude 10° 23:06:06 10° 227° (SW) 6,962 ? -68.8°
Sets 23:12:01 0° 216° (SW) 8,063 ? -69.4°
